| time (UTC) | temp F | wind direction | speed knots | gust knots | rain 1hr in | rain 24hr in | rain mn in | humidity % | barometer mb |
| 20260507115414 | 48 | 4 | 0.0 | 0.0 | 0.00 | 0.00 | 0.00 | 100 | 1011.8 |
| 20260507114915 | 48 | 4 | 0.0 | 0.0 | 0.00 | 0.00 | 0.00 | 100 | 1012.0 |
| 20260507114413 | 48 | 4 | 0.0 | 0.0 | 0.00 | 0.00 | 0.00 | 100 | 1012.0 |
| 20260507113914 | 48 | 4 | 0.0 | 0.0 | 0.00 | 0.00 | 0.00 | 100 | 1012.0 |
| 20260507113414 | 48 | 4 | 0.0 | 0.0 | 0.00 | 0.00 | 0.00 | 100 | 1012.2 |
| 20260507112914 | 48 | 4 | 0.0 | 0.0 | 0.00 | 0.00 | 0.00 | 100 | 1012.2 |
| 20260507112414 | 48 | 4 | 0.0 | 0.0 | 0.00 | 0.00 | 0.00 | 100 | 1012.1 |
| 20260507111914 | 48 | 4 | 0.0 | 0.0 | 0.00 | 0.00 | 0.00 | 100 | 1012.1 |
| 20260507111414 | 48 | 4 | 0.0 | 0.0 | 0.00 | 0.00 | 0.00 | 100 | 1012.3 |
| 20260507110914 | 48 | 4 | 0.0 | 0.0 | 0.00 | 0.00 | 0.00 | 100 | 1012.4 |
| 20260507110414 | 48 | 4 | 0.0 | 0.0 | 0.00 | 0.00 | 0.00 | 100 | 1012.2 |
| 20260507105914 | 48 | 4 | 0.0 | 0.0 | 0.00 | 0.00 | 0.00 | 100 | 1012.1 |
| 20260507105414 | 48 | 4 | 0.0 | 0.0 | 0.00 | 0.00 | 0.00 | 100 | 1012.6 |
| 20260507104914 | 48 | 4 | 0.0 | 0.0 | 0.00 | 0.00 | 0.00 | 100 | 1013.0 |
| 20260507104414 | 48 | 4 | 0.0 | 0.0 | 0.00 | 0.00 | 0.00 | 100 | 1012.3 |
| 20260507103915 | 48 | 4 | 0.0 | 0.0 | 0.00 | 0.00 | 0.00 | 100 | 1012.2 |
| 20260507103414 | 48 | 4 | 0.0 | 0.0 | 0.00 | 0.00 | 0.00 | 100 | 1012.7 |
| 20260507102913 | 48 | 4 | 0.0 | 0.0 | 0.00 | 0.00 | 0.00 | 100 | 1012.6 |
| 20260507102414 | 48 | 4 | 0.0 | 0.0 | 0.00 | 0.00 | 0.00 | 100 | 1012.1 |
| 20260507101914 | 48 | 4 | 0.0 | 0.0 | 0.00 | 0.00 | 0.00 | 100 | 1012.2 |
| 20260507101414 | 48 | 4 | 0.0 | 0.0 | 0.00 | 0.00 | 0.00 | 100 | 1012.2 |
| 20260507100914 | 48 | 4 | 0.0 | 0.0 | 0.00 | 0.00 | 0.00 | 100 | 1012.1 |
| 20260507100414 | 48 | 4 | 0.0 | 0.0 | 0.00 | 0.00 | 0.00 | 100 | 1012.3 |
| 20260507095914 | 48 | 4 | 0.0 | 0.0 | 0.00 | 0.00 | 0.00 | 100 | 1011.8 |
| 20260507095414 | 48 | 4 | 0.0 | 0.0 | 0.00 | 0.00 | 0.00 | 100 | 1011.4 |
| 20260507094914 | 48 | 4 | 0.0 | 0.0 | 0.00 | 0.00 | 0.00 | 100 | 1011.5 |
| 20260507094414 | 48 | 4 | 0.0 | 0.0 | 0.00 | 0.00 | 0.00 | 100 | 1011.9 |
| 20260507093414 | 48 | 4 | 0.0 | 0.0 | 0.00 | 0.00 | 0.00 | 100 | 1011.5 |
| 20260507092914 | 48 | 4 | 0.0 | 0.0 | 0.00 | 0.00 | 0.00 | 100 | 1011.2 |
| 20260507091914 | 48 | 4 | 0.0 | 0.0 | 0.00 | 0.00 | 0.00 | 100 | 1011.6 |
| 20260507091414 | 48 | 4 | 0.0 | 2.6 | 0.00 | 0.00 | 0.00 | 100 | 1011.8 |
| 20260507090914 | 48 | 4 | 0.0 | 2.6 | 0.00 | 0.00 | 0.00 | 100 | 1011.5 |
| 20260507090414 | 48 | 24 | 0.0 | 2.6 | 0.00 | 0.00 | 0.00 | 100 | 1011.5 |
| 20260507085915 | 48 | 24 | 0.0 | 2.6 | 0.00 | 0.00 | 0.00 | 100 | 1011.5 |
| 20260507085414 | 48 | 23 | 0.0 | 2.6 | 0.00 | 0.00 | 0.00 | 100 | 1011.7 |
| 20260507084414 | 49 | 8 | 0.0 | 4.3 | 0.00 | 0.00 | 0.00 | 100 | 1011.5 |
| 20260507083914 | 49 | 3 | 0.0 | 6.1 | 0.00 | 0.00 | 0.00 | 100 | 1011.4 |
| 20260507083415 | 49 | 8 | 1.7 | 6.1 | 0.00 | 0.00 | 0.00 | 100 | 1011.1 |
| 20260507082914 | 49 | 6 | 0.0 | 5.2 | 0.00 | 0.00 | 0.00 | 100 | 1011.0 |
| 20260507081914 | 49 | 18 | 0.9 | 4.3 | 0.00 | 0.00 | 0.00 | 100 | 1011.5 |
| 20260507081414 | 49 | 16 | 0.0 | 2.6 | 0.00 | 0.00 | 0.00 | 100 | 1011.6 |
| 20260507080916 | 49 | 16 | 0.0 | 4.3 | 0.00 | 0.00 | 0.00 | 100 | 1011.5 |
| 20260507080415 | 49 | 15 | 0.9 | 4.3 | 0.00 | 0.00 | 0.00 | 100 | 1011.0 |
| 20260507075914 | 49 | 13 | 0.0 | 4.3 | 0.00 | 0.00 | 0.00 | 100 | 1011.2 |
| 20260507075414 | 49 | 9 | 1.7 | 5.2 | 0.00 | 0.00 | 0.00 | 100 | 1011.0 |
| 20260507074914 | 49 | 12 | 1.7 | 5.2 | 0.00 | 0.00 | 0.00 | 100 | 1011.2 |
| 20260507073914 | 50 | 15 | 1.7 | 4.3 | 0.00 | 0.00 | 0.00 | 100 | 1011.2 |
| 20260507073414 | 50 | 11 | 0.0 | 4.3 | 0.00 | 0.00 | 0.00 | 100 | 1010.9 |
| 20260507072915 | 50 | 10 | 0.0 | 4.3 | 0.00 | 0.00 | 0.00 | 100 | 1010.8 |
| 20260507072414 | 50 | 11 | 1.7 | 4.3 | 0.00 | 0.00 | 0.00 | 100 | 1011.0 |
| 20260507071414 | 50 | 14 | 0.0 | 0.0 | 0.00 | 0.00 | 0.00 | 100 | 1010.6 |
| 20260507070414 | 50 | 14 | 0.0 | 0.0 | 0.00 | 0.00 | 0.00 | 100 | 1010.8 |
| 20260507065914 | 50 | 14 | 0.0 | 0.0 | 0.00 | 0.00 | 0.00 | 100 | 1010.6 |
| 20260507065414 | 50 | 14 | 0.0 | 0.0 | 0.00 | 0.00 | 0.00 | 100 | 1010.2 |
| 20260507064914 | 50 | 14 | 0.0 | 0.0 | 0.00 | 0.00 | 0.00 | 100 | 1010.2 |
| 20260507064414 | 50 | 14 | 0.0 | 0.0 | 0.00 | 0.00 | 0.00 | 100 | 1010.3 |
| 20260507063413 | 50 | 14 | 0.0 | 0.0 | 0.00 | 0.00 | 0.00 | 100 | 1010.2 |
| 20260507062915 | 50 | 14 | 0.0 | 0.0 | 0.00 | 0.00 | 0.00 | 100 | 1010.1 |
| 20260507062414 | 50 | 14 | 0.0 | 0.0 | 0.00 | 0.00 | 0.00 | 100 | 1010.1 |
| 20260507061415 | 51 | 14 | 0.0 | 0.0 | 0.00 | 0.00 | 0.00 | 100 | 1010.2 |
| 20260507055914 | 51 | 14 | 0.0 | 5.2 | 0.00 | 0.00 | 0.00 | 100 | 1009.7 |
| 20260507055415 | 51 | 30 | 0.9 | 5.2 | 0.00 | 0.00 | 0.00 | 100 | 1010.1 |
| 20260507054914 | 51 | 17 | 1.7 | 5.2 | 0.00 | 0.00 | 0.00 | 100 | 1010.2 |
| 20260507054416 | 52 | 18 | 0.9 | 5.2 | 0.00 | 0.00 | 0.00 | 100 | 1010.1 |
| 20260507053914 | 52 | 7 | 0.0 | 2.6 | 0.00 | 0.00 | 0.00 | 100 | 1010.0 |
| 20260507053414 | 52 | 14 | 0.0 | 0.0 | 0.00 | 0.00 | 0.00 | 100 | 1009.9 |
| 20260507052914 | 52 | 14 | 0.0 | 6.1 | 0.00 | 0.00 | 0.00 | 100 | 1010.0 |
| 20260507052415 | 52 | 14 | 0.0 | 6.1 | 0.00 | 0.00 | 0.00 | 100 | 1009.9 |
| 20260507051914 | 52 | 20 | 0.9 | 6.1 | 0.00 | 0.00 | 0.00 | 100 | 1010.0 |
| 20260507051414 | 52 | 11 | 0.9 | 6.1 | 0.00 | 0.00 | 0.00 | 100 | 1010.0 |
| 20260507045914 | 52 | 29 | 2.6 | 7.8 | 0.00 | 0.00 | 0.00 | 100 | 1009.6 |
| 20260507045415 | 52 | 13 | 0.9 | 4.3 | 0.00 | 0.00 | 0.00 | 100 | 1009.6 |
| 20260507044914 | 51 | 134 | 0.0 | 1.7 | 0.00 | 0.00 | 0.00 | 100 | 1009.8 |
| 20260507044414 | 51 | 134 | 0.0 | 0.0 | 0.00 | 0.00 | 0.00 | 100 | 1009.8 |
| 20260507043914 | 51 | 134 | 0.0 | 0.0 | 0.00 | 0.00 | 0.00 | 100 | 1010.0 |
| 20260507043414 | 51 | 134 | 0.0 | 6.1 | 0.00 | 0.00 | 0.00 | 100 | 1010.1 |
| 20260507042915 | 51 | 134 | 0.9 | 6.1 | 0.00 | 0.00 | 0.00 | 100 | 1010.1 |
| 20260507042414 | 51 | 124 | 0.9 | 6.1 | 0.00 | 0.00 | 0.00 | 100 | 1010.1 |
| 20260507041914 | 51 | 164 | 0.0 | 4.3 | 0.00 | 0.00 | 0.00 | 100 | 1009.9 |
| 20260507040914 | 51 | 178 | 0.9 | 4.3 | 0.00 | 0.00 | 0.00 | 100 | 1009.1 |
| 20260507040415 | 51 | 186 | 0.0 | 1.7 | 0.00 | 0.00 | 0.00 | 100 | 1009.2 |
| 20260507035914 | 51 | 186 | 0.0 | 4.3 | 0.00 | 0.00 | 0.00 | 100 | 1009.2 |
| 20260507035414 | 51 | 179 | 0.0 | 5.2 | 0.00 | 0.00 | 0.00 | 100 | 1009.1 |
| 20260507034914 | 51 | 213 | 0.9 | 5.2 | 0.00 | 0.00 | 0.00 | 100 | 1009.2 |
| 20260507033915 | 51 | 133 | 0.0 | 6.1 | 0.00 | 0.00 | 0.00 | 100 | 1009.2 |
| 20260507033414 | 51 | 182 | 0.9 | 7.0 | 0.00 | 0.00 | 0.00 | 100 | 1009.3 |
| 20260507032914 | 51 | 150 | 1.7 | 8.7 | 0.00 | 0.00 | 0.00 | 100 | 1009.3 |
| 20260507032414 | 51 | 136 | 0.9 | 8.7 | 0.00 | 0.00 | 0.00 | 100 | 1009.4 |
| 20260507031914 | 51 | 157 | 0.9 | 8.7 | 0.00 | 0.00 | 0.00 | 100 | 1009.2 |
| 20260507031414 | 51 | 167 | 0.9 | 7.8 | 0.00 | 0.00 | 0.00 | 100 | 1009.4 |
| 20260507030914 | 51 | 185 | 2.6 | 7.8 | 0.00 | 0.00 | 0.00 | 100 | 1009.2 |
| 20260507025914 | 51 | 194 | 0.0 | 11.3 | 0.00 | 0.00 | 0.00 | 100 | 1009.4 |
| 20260507025414 | 51 | 224 | 0.0 | 11.3 | 0.00 | 0.00 | 0.00 | 100 | 1009.4 |
| 20260507024914 | 51 | 147 | 1.7 | 11.3 | 0.00 | 0.00 | 0.00 | 100 | 1009.5 |
| 20260507022915 | 51 | 78 | 0.0 | 5.2 | 0.00 | 0.00 | 0.00 | 100 | 1009.7 |
| 20260507022415 | 51 | 78 | 0.0 | 5.2 | 0.00 | 0.00 | 0.00 | 100 | 1009.7 |
| 20260507021914 | 51 | 148 | 0.0 | 10.4 | 0.00 | 0.00 | 0.00 | 100 | 1009.8 |
| 20260507020414 | 51 | 178 | 0.0 | 5.2 | 0.00 | 0.00 | 0.00 | 100 | 1009.8 |
| 20260507015914 | 51 | 193 | 0.9 | 10.4 | 0.00 | 0.00 | 0.00 | 100 | 1010.0 |
| 20260507015414 | 51 | 195 | 0.0 | 10.4 | 0.00 | 0.00 | 0.00 | 100 | 1010.0 |
| 20260507014915 | 51 | 161 | 0.0 | 8.7 | 0.00 | 0.00 | 0.00 | 100 | 1010.0 |
| 20260507014414 | 51 | 193 | 0.9 | 8.7 | 0.00 | 0.00 | 0.00 | 100 | 1010.1 |
| 20260507013414 | 51 | 152 | 1.7 | 12.2 | 0.00 | 0.00 | 0.00 | 100 | 1010.1 |
| 20260507012915 | 51 | 137 | 2.6 | 12.2 | 0.00 | 0.00 | 0.00 | 100 | 1010.2 |
| 20260507012414 | 52 | 144 | 0.9 | 12.2 | 0.00 | 0.00 | 0.00 | 100 | 1010.2 |
| 20260507011914 | 52 | 163 | 0.9 | 12.2 | 0.00 | 0.00 | 0.00 | 100 | 1010.2 |
| 20260507011415 | 52 | 172 | 0.9 | 10.4 | 0.00 | 0.00 | 0.00 | 100 | 1010.2 |
| 20260507010414 | 52 | 267 | 1.7 | 13.0 | 0.00 | 0.00 | 0.00 | 100 | 1010.2 |
| 20260507005915 | 52 | 88 | 0.9 | 13.0 | 0.00 | 0.00 | 0.00 | 100 | 1010.2 |
| 20260507005414 | 53 | 192 | 2.6 | 10.4 | 0.00 | 0.00 | 0.00 | 100 | 1010.3 |
| 20260507004914 | 53 | 167 | 0.9 | 11.3 | 0.00 | 0.00 | 0.00 | 100 | 1010.3 |
| 20260507004414 | 53 | 176 | 0.9 | 11.3 | 0.00 | 0.00 | 0.00 | 100 | 1010.3 |
| 20260507003915 | 53 | 158 | 0.9 | 10.4 | 0.00 | 0.00 | 0.00 | 100 | 1010.4 |
| 20260507003414 | 53 | 185 | 0.0 | 8.7 | 0.00 | 0.00 | 0.00 | 100 | 1010.4 |
| 20260507002914 | 53 | 188 | 0.9 | 12.2 | 0.00 | 0.00 | 0.00 | 100 | 1010.4 |
| 20260507002414 | 53 | 144 | 0.9 | 12.2 | 0.00 | 0.00 | 0.00 | 100 | 1010.5 |
| 20260507001915 | 53 | 166 | 1.7 | 12.2 | 0.00 | 0.00 | 0.00 | 100 | 1010.6 |
| 20260507001414 | 53 | 130 | 0.9 | 11.3 | 0.00 | 0.00 | 0.00 | 100 | 1010.5 |
| 20260507000914 | 53 | 182 | 0.9 | 11.3 | 0.00 | 0.00 | 0.00 | 100 | 1010.4 |
| 20260507000414 | 54 | 176 | 0.9 | 8.7 | 0.00 | 0.00 | 0.00 | 100 | 1010.4 |
| 20260506235914 | 54 | 199 | 0.9 | 7.8 | 0.00 | 0.00 | 0.00 | 100 | 1010.4 |
| 20260506234914 | 54 | 166 | 1.7 | 10.4 | 0.00 | 0.00 | 0.00 | 100 | 1010.4 |
| 20260506234415 | 54 | 199 | 1.7 | 10.4 | 0.00 | 0.00 | 0.00 | 100 | 1010.5 |
| 20260506233914 | 54 | 190 | 1.7 | 11.3 | 0.00 | 0.00 | 0.00 | 100 | 1010.6 |
| 20260506233415 | 54 | 96 | 2.6 | 11.3 | 0.00 | 0.00 | 0.00 | 100 | 1010.5 |
| 20260506232914 | 54 | 205 | 1.7 | 10.4 | 0.00 | 0.00 | 0.00 | 100 | 1010.5 |
| 20260506232415 | 54 | 147 | 2.6 | 12.2 | 0.00 | 0.00 | 0.00 | 100 | 1010.6 |
| 20260506231914 | 54 | 150 | 0.9 | 12.2 | 0.00 | 0.00 | 0.00 | 100 | 1010.6 |
| 20260506231414 | 54 | 125 | 0.9 | 13.0 | 0.00 | 0.00 | 0.00 | 100 | 1010.7 |
| 20260506230915 | 54 | 222 | 0.9 | 13.9 | 0.00 | 0.00 | 0.00 | 100 | 1010.7 |
| 20260506225915 | 54 | 42 | 2.6 | 13.0 | 0.00 | 0.00 | 0.00 | 100 | 1010.7 |
| 20260506225415 | 54 | 183 | 2.6 | 11.3 | 0.00 | 0.00 | 0.00 | 100 | 1010.8 |
| 20260506224414 | 53 | 100 | 0.9 | 7.8 | 0.00 | 0.00 | 0.00 | 100 | 1010.9 |
| 20260506223914 | 53 | 142 | 1.7 | 7.8 | 0.00 | 0.00 | 0.00 | 100 | 1011.0 |
| 20260506223415 | 53 | 150 | 0.9 | 12.2 | 0.00 | 0.00 | 0.00 | 100 | 1011.1 |
| 20260506222915 | 53 | 234 | 0.9 | 12.2 | 0.00 | 0.00 | 0.00 | 100 | 1011.2 |
| 20260506222414 | 53 | 114 | 0.9 | 15.6 | 0.00 | 0.00 | 0.00 | 100 | 1011.1 |
| 20260506221915 | 53 | 186 | 2.6 | 15.6 | 0.00 | 0.00 | 0.00 | 100 | 1011.1 |
| 20260506221414 | 53 | 162 | 1.7 | 13.0 | 0.00 | 0.00 | 0.00 | 100 | 1011.1 |
| 20260506220914 | 53 | 205 | 2.6 | 13.0 | 0.00 | 0.00 | 0.00 | 100 | 1011.2 |
| 20260506220414 | 53 | 155 | 4.3 | 13.0 | 0.00 | 0.00 | 0.00 | 100 | 1011.3 |
| 20260506215915 | 53 | 178 | 1.7 | 13.0 | 0.00 | 0.00 | 0.00 | 100 | 1011.3 |
| 20260506215414 | 53 | 212 | 0.9 | 14.8 | 0.00 | 0.00 | 0.00 | 100 | 1011.4 |
| 20260506214915 | 53 | 43 | 1.7 | 14.8 | 0.00 | 0.00 | 0.00 | 100 | 1011.5 |
| 20260506214416 | 53 | 187 | 1.7 | 12.2 | 0.00 | 0.00 | 0.00 | 100 | 1011.5 |
| 20260506213914 | 52 | 128 | 2.6 | 13.0 | 0.00 | 0.00 | 0.00 | 100 | 1011.5 |
| 20260506213415 | 52 | 234 | 3.5 | 13.0 | 0.00 | 0.00 | 0.00 | 100 | 1011.6 |
| 20260506212415 | 52 | 159 | 2.6 | 12.2 | 0.00 | 0.00 | 0.00 | 100 | 1011.7 |
| 20260506210914 | 52 | 326 | 0.9 | 10.4 | 0.00 | 0.00 | 0.00 | 100 | 1011.9 |
| 20260506210414 | 52 | 145 | 3.5 | 10.4 | 0.00 | 0.00 | 0.00 | 100 | 1011.9 |
| 20260506205914 | 52 | 112 | 0.9 | 7.8 | 0.00 | 0.00 | 0.00 | 100 | 1011.9 |
| 20260506204914 | 53 | 227 | 2.6 | 8.7 | 0.00 | 0.00 | 0.00 | 100 | 1011.9 |
| 20260506203915 | 53 | 230 | 0.9 | 6.1 | 0.00 | 0.00 | 0.00 | 100 | 1011.8 |
| 20260506203414 | 53 | 296 | 1.7 | 7.0 | 0.00 | 0.00 | 0.00 | 100 | 1011.9 |
| 20260506202914 | 53 | 103 | 0.9 | 10.4 | 0.00 | 0.00 | 0.00 | 100 | 1012.0 |
| 20260506202414 | 53 | 130 | 1.7 | 10.4 | 0.00 | 0.00 | 0.00 | 99 | 1012.3 |
| 20260506201915 | 53 | 152 | 0.0 | 7.8 | 0.00 | 0.00 | 0.00 | 99 | 1012.2 |
| 20260506201415 | 53 | 89 | 3.5 | 8.7 | 0.00 | 0.00 | 0.00 | 99 | 1012.4 |
| 20260506200914 | 53 | 199 | 2.6 | 10.4 | 0.00 | 0.00 | 0.00 | 98 | 1012.6 |
| 20260506200415 | 53 | 217 | 1.7 | 10.4 | 0.00 | 0.00 | 0.00 | 98 | 1012.6 |
| 20260506195916 | 53 | 118 | 3.5 | 7.0 | 0.00 | 0.00 | 0.00 | 98 | 1012.7 |
| 20260506193914 | 54 | 182 | 3.5 | 8.7 | 0.00 | 0.00 | 0.00 | 96 | 1012.6 |
| 20260506193415 | 54 | 100 | 0.9 | 11.3 | 0.00 | 0.00 | 0.00 | 96 | 1012.5 |
| 20260506192414 | 54 | 155 | 3.5 | 17.4 | 0.00 | 0.00 | 0.00 | 95 | 1012.4 |
| 20260506191914 | 55 | 207 | 5.2 | 17.4 | 0.00 | 0.00 | 0.00 | 94 | 1012.2 |
| 20260506191414 | 55 | 194 | 5.2 | 17.4 | 0.00 | 0.00 | 0.00 | 94 | 1012.1 |
| 20260506190914 | 55 | 142 | 3.5 | 11.3 | 0.00 | 0.00 | 0.00 | 94 | 1012.2 |
| 20260506190414 | 55 | 171 | 5.2 | 11.3 | 0.00 | 0.00 | 0.00 | 93 | 1012.0 |
| 20260506185414 | 55 | 145 | 5.2 | 13.9 | 0.00 | 0.00 | 0.00 | 93 | 1011.8 |
| 20260506184414 | 55 | 239 | 4.3 | 11.3 | 0.00 | 0.00 | 0.00 | 92 | 1012.0 |
| 20260506183914 | 55 | 157 | 5.2 | 13.9 | 0.00 | 0.00 | 0.00 | 92 | 1012.0 |
| 20260506183414 | 55 | 249 | 5.2 | 13.9 | 0.00 | 0.00 | 0.00 | 92 | 1012.2 |
| 20260506182914 | 55 | 164 | 5.2 | 13.9 | 0.00 | 0.00 | 0.00 | 92 | 1012.4 |
| 20260506182415 | 56 | 155 | 5.2 | 13.9 | 0.00 | 0.00 | 0.00 | 92 | 1012.4 |
| 20260506181914 | 56 | 258 | 2.6 | 11.3 | 0.00 | 0.00 | 0.00 | 92 | 1012.5 |
| 20260506181414 | 56 | 96 | 4.3 | 14.8 | 0.00 | 0.00 | 0.00 | 91 | 1012.5 |
| 20260506180914 | 56 | 168 | 5.2 | 15.6 | 0.00 | 0.00 | 0.00 | 91 | 1012.6 |
| 20260506180414 | 56 | 174 | 7.8 | 15.6 | 0.00 | 0.00 | 0.00 | 92 | 1012.6 |
| 20260506175915 | 56 | 245 | 7.0 | 14.8 | 0.00 | 0.00 | 0.00 | 92 | 1012.7 |
| 20260506175414 | 55 | 195 | 4.3 | 11.3 | 0.00 | 0.00 | 0.00 | 92 | 1012.7 |
| 20260506174915 | 55 | 296 | 4.3 | 11.3 | 0.00 | 0.00 | 0.00 | 92 | 1012.8 |
| 20260506174415 | 55 | 105 | 4.3 | 11.3 | 0.00 | 0.00 | 0.00 | 92 | 1012.9 |
| 20260506173915 | 55 | 178 | 6.1 | 13.9 | 0.00 | 0.00 | 0.00 | 92 | 1012.9 |
| 20260506173414 | 55 | 142 | 2.6 | 13.9 | 0.00 | 0.00 | 0.00 | 92 | 1012.9 |
| 20260506172915 | 55 | 195 | 6.1 | 13.9 | 0.00 | 0.00 | 0.00 | 91 | 1012.9 |
| 20260506172416 | 55 | 159 | 5.2 | 12.2 | 0.00 | 0.00 | 0.00 | 91 | 1013.2 |
| 20260506161410 | 57 | 164 | 4.3 | 10.4 | 0.00 | 0.00 | 0.00 | 90 | 1014.4 |
| 20260506160910 | 57 | 189 | 5.2 | 10.4 | 0.00 | 0.00 | 0.00 | 90 | 1014.5 |
| 20260506160411 | 57 | 197 | 4.3 | 10.4 | 0.00 | 0.00 | 0.00 | 90 | 1014.6 |
| 20260506155911 | 57 | 208 | 4.3 | 8.7 | 0.00 | 0.00 | 0.00 | 90 | 1014.5 |
| 20260506155411 | 57 | 33 | 2.6 | 8.7 | 0.00 | 0.00 | 0.00 | 90 | 1014.5 |
| 20260506154910 | 57 | 201 | 3.5 | 8.7 | 0.00 | 0.00 | 0.00 | 90 | 1014.7 |
| 20260506154410 | 57 | 172 | 1.7 | 10.4 | 0.00 | 0.00 | 0.00 | 90 | 1014.7 |
| 20260506153910 | 57 | 177 | 4.3 | 10.4 | 0.00 | 0.00 | 0.00 | 90 | 1014.8 |
| 20260506153410 | 57 | 182 | 6.1 | 10.4 | 0.00 | 0.00 | 0.00 | 89 | 1014.9 |
| 20260506152911 | 58 | 239 | 4.3 | 8.7 | 0.00 | 0.00 | 0.00 | 89 | 1014.8 |
| 20260506152412 | 58 | 197 | 2.6 | 8.7 | 0.00 | 0.00 | 0.00 | 90 | 1014.7 |
| 20260506151912 | 58 | 49 | 2.6 | 10.4 | 0.00 | 0.00 | 0.00 | 90 | 1014.7 |
| 20260506151411 | 58 | 149 | 5.2 | 10.4 | 0.00 | 0.00 | 0.00 | 89 | 1014.8 |
| 20260506150910 | 58 | 144 | 2.6 | 12.2 | 0.00 | 0.00 | 0.00 | 90 | 1014.6 |
| 20260506150411 | 58 | 149 | 5.2 | 12.2 | 0.00 | 0.00 | 0.00 | 90 | 1014.4 |
| 20260506145910 | 58 | 196 | 6.1 | 12.2 | 0.00 | 0.00 | 0.00 | 90 | 1014.2 |
| 20260506145410 | 58 | 193 | 4.3 | 13.9 | 0.00 | 0.00 | 0.00 | 90 | 1014.3 |
| 20260506143912 | 57 | 172 | 2.6 | 7.8 | 0.00 | 0.00 | 0.00 | 91 | 1014.3 |
| 20260506143411 | 57 | 195 | 4.3 | 7.8 | 0.00 | 0.00 | 0.00 | 92 | 1014.4 |
| 20260506142911 | 57 | 122 | 2.6 | 10.4 | 0.00 | 0.00 | 0.00 | 92 | 1014.5 |
| 20260506142411 | 57 | 124 | 5.2 | 10.4 | 0.00 | 0.00 | 0.00 | 92 | 1014.6 |
| 20260506141910 | 57 | 216 | 1.7 | 12.2 | 0.00 | 0.00 | 0.00 | 93 | 1014.8 |
| 20260506141410 | 56 | 145 | 4.3 | 12.2 | 0.00 | 0.00 | 0.00 | 93 | 1014.9 |
| 20260506140910 | 56 | 154 | 4.3 | 12.2 | 0.00 | 0.00 | 0.00 | 93 | 1014.9 |
| 20260506140411 | 56 | 189 | 3.5 | 7.0 | 0.00 | 0.00 | 0.00 | 94 | 1014.9 |
| 20260506135910 | 56 | 182 | 2.6 | 8.7 | 0.00 | 0.00 | 0.00 | 94 | 1014.9 |
| 20260506135411 | 56 | 131 | 4.3 | 8.7 | 0.00 | 0.00 | 0.00 | 94 | 1014.9 |
| 20260506134911 | 56 | 167 | 3.5 | 10.4 | 0.00 | 0.00 | 0.00 | 93 | 1014.8 |
| 20260506134410 | 56 | 188 | 5.2 | 11.3 | 0.00 | 0.00 | 0.00 | 93 | 1014.9 |
| 20260506133910 | 56 | 142 | 2.6 | 13.9 | 0.00 | 0.00 | 0.00 | 93 | 1014.8 |
| 20260506132910 | 56 | 181 | 5.2 | 10.4 | 0.00 | 0.00 | 0.00 | 93 | 1014.7 |
| 20260506132410 | 56 | 80 | 2.6 | 7.0 | 0.00 | 0.00 | 0.00 | 93 | 1014.6 |
| 20260506131410 | 56 | 280 | 1.7 | 7.8 | 0.00 | 0.00 | 0.00 | 94 | 1014.7 |
| 20260506130911 | 56 | 173 | 3.5 | 7.0 | 0.00 | 0.00 | 0.00 | 94 | 1014.7 |
| 20260506130410 | 56 | 91 | 2.6 | 6.1 | 0.00 | 0.00 | 0.00 | 94 | 1014.5 |
| 20260506125910 | 55 | 209 | 1.7 | 5.2 | 0.00 | 0.00 | 0.00 | 94 | 1014.6 |
| 20260506125411 | 55 | 95 | 0.9 | 8.7 | 0.00 | 0.00 | 0.00 | 94 | 1014.5 |
| 20260506124911 | 55 | 139 | 2.6 | 8.7 | 0.00 | 0.00 | 0.00 | 94 | 1014.6 |
| 20260506124412 | 55 | 209 | 1.7 | 7.8 | 0.00 | 0.00 | 0.00 | 94 | 1014.6 |
| 20260506123911 | 55 | 150 | 0.9 | 7.8 | 0.00 | 0.00 | 0.00 | 95 | 1014.6 |
| 20260506122911 | 55 | 119 | 1.7 | 7.0 | 0.00 | 0.00 | 0.00 | 95 | 1014.8 |
| 20260506122410 | 55 | 226 | 0.0 | 7.8 | 0.00 | 0.00 | 0.00 | 95 | 1014.8 |
| 20260506121911 | 55 | 172 | 3.5 | 7.8 | 0.00 | 0.00 | 0.00 | 95 | 1014.8 |
| 20260506121411 | 55 | 197 | 0.9 | 7.0 | 0.00 | 0.00 | 0.00 | 95 | 1014.7 |
| 20260506120910 | 55 | 229 | 3.5 | 7.0 | 0.00 | 0.00 | 0.00 | 95 | 1014.8 |
| 20260506120411 | 54 | 153 | 2.6 | 7.0 | 0.00 | 0.00 | 0.00 | 96 | 1014.7 |
| 20260506115910 | 54 | 152 | 3.5 | 7.0 | 0.00 | 0.00 | 0.00 | 96 | 1014.8 |